Location: Chittendens Corners
(41.2320°N, 81.4940°W)
Time: 08:39:08
(UTC+00:00)

ERS-2 - Pass Details

Date: 29 October 2020
Orbit: 493 x 497 km, 98.6° (Epoch: 27 November)

Event Time Altitude Azimuth Distance (km) Brightness Sun altitude
Rises 23:31:07 0° 4° (N) 2,585 5.6 -13.1°
Reaches altitude 10° 23:33:19 10° 355° (N) 1,698 4.8 -13.5°
Maximum altitude 23:36:38 34° 290° (WNW) 831 3.9 -14.1°
Drops below altitude 10° 23:39:56 10° 224° (SW) 1,687 5.5 -14.7°
Sets 23:42:07 0° 215° (SW) 2,565 6.3 -15.1°
